Tracking 31027 objects as of 19-Jul-2025
HD Live streaming from Space Station
objects crossing your sky now

OBJECT D

Track OBJECT D now!
10-day predictions


NORAD ID: 44882
Int'l Code: 2019-093D
Perigee: 566.8 km
Apogee: 584.9 km
Inclination: 97.8 °
Period: 96.0 minutes
Semi major axis: 6946 km
RCS: Unknown
Launch date: December 20, 2019
Source: (TBD)
Launch site: Taiyaun Space Center, China (TSC)

Note: This is a ROCKET BODY
Your satellite tracking list
Your tracking list is empty




NASA's NSSDC Master Catalog

Two Line Element Set (TLE):
1 44882U 19093D   25199.85064754  .00005141  00000-0  42397-3 0  9992
2 44882  97.8182 287.5725 0013052  79.3455 280.9237 14.99412377302567
Source of the keplerian elements: AFSPC